[[{"header":{"parameterUnit":"m.s-1","parameterCategory":1,"la1":30.2991,"la2":30.254,"lo1":-89.0895,"lo2":-89.0444,"dy":0.0017,"dx":0.0017,"nx":28,"ny":28,"refTime":"2024-04-18T03:00:00:Z","depth":0,"parameterNumber":2,"parameterNumberName":"U-component_of_WINDS"},"data":[0,0,0,0,0,0,0,0,0,0,0,0,0,0,0,0,0,0,0,0,0,0,0,0,0,0,0,0,0,0,0,0,0,0,0,0,0,0,0,0,0,0,0,0,0,0,0,0,0,0,0,0,0,0,0,0,0,0,0.0858,0.0859,0,0.0961,0.0962,0.0964,0.1015,0.1015,0.1015,0.1015,0.1122,0.1125,0.1128,0,0,0,0,0,0,0,0,0,0,0,0,0,0.0704,0.0707,0.0858,0.0859,0.086,0.0961,0.0962,0.0964,0.1015,0.1015,0.1015,0.1015,0.1121,0.1124,0.1128,0,0,0,0,0,0,0,0,0,0,0,0,0,0.0786,0.0708,0.0857,0.0898,0.0903,0.0961,0.0963,0.0964,0.1015,0.1015,0.1015,0.1015,0.112,0.1124,0.1128,0.1154,0,0,0.1141,0.1143,0,0,0,0,0,0,0,0,0.0781,0.0791,0.0891,0.0895,0.0901,0.0975,0.0948,0.1028,0.1015,0.0973,0.1015,0.1015,0.1073,0.1081,0.1101,0.1159,0.1164,0.1142,0.1144,0.1146,0.1147,0,0,0,0,0,0,0,0.0775,0.0787,0.0899,0.0892,0.0898,0.0911,0.0923,0.0963,0.1022,0.0976,0.098,0.0992,0.1076,0.1097,0.1104,0.1165,0.1142,0.1145,0.1148,0.115,0.125,0.125,0,0,0,0,0,0,0.0763,0.0782,0.0895,0.0902,0.084,0.0914,0.0927,0.0951,0.1021,0.1032,0.0992,0.0994,0.1089,0.1099,0.1108,0.1143,0.1146,0.115,0.1152,0.125,0.125,0.125,0,0,0,0,0,0,0.076,0.0773,0.0891,0.0843,0.0859,0.0916,0.0944,0.0953,0.0974,0.1033,0.1044,0.1002,0.109,0.1102,0.1142,0.1147,0.1152,0.1156,0.125,0.125,0.125,0.1212,0,0,0,0,0,0,0.0755,0.0771,0.0782,0.0843,0.0861,0.0924,0.0944,0.0955,0.0981,0.0985,0.1045,0.1055,0.1091,0.1135,0.1146,0.1153,0.1159,0.1249,0.125,0.125,0.1213,0.1211,0.1209,0,0,0,0,0,0.0749,0.0767,0.0782,0.0795,0.0876,0.0924,0.0935,0.0975,0.0981,0.0992,0.103,0.1053,0.1144,0.1139,0.1152,0.116,0.1249,0.125,0.125,0.1214,0.1211,0.1209,0,0,0,0,0,0,0.0705,0.0776,0.0793,0.0831,0.0871,0.0932,0.0948,0.097,0.101,0.1011,0.106,0.1073,0.1109,0.1138,0.1131,0.1188,0.1199,0.1202,0.1168,0.1166,0.1164,0.1156,0.1163,0,0,0,0,0,0.0699,0.0733,0.0793,0.082,0.084,0.089,0.0912,0.094,0.0983,0.1,0.1041,0.1083,0.1121,0.1145,0.1183,0.1217,0.1231,0.1229,0.1227,0.1225,0.1227,0.1247,0.1247,0.1251,0.1251,0.1251,0,0,0.0689,0.0731,0.075,0.0813,0.0847,0.088,0.0904,0.0938,0.0964,0.1006,0.1047,0.1078,0.1127,0.1165,0.1183,0.119,0.1229,0.1225,0.1223,0.1227,0.1248,0.1247,0.1247,0.1251,0.1251,0.1251,0,0,0.0686,0.0722,0.0749,0.0782,0.0834,0.0867,0.0873,0.0932,0.0954,0.0995,0.1028,0.1058,0.1123,0.1157,0.1182,0.1192,0.1215,0.1203,0.1192,0.1212,0.1211,0.1211,0.1215,0.1215,0.1204,0.1204,0.1204,0,0.0666,0.0718,0.076,0.0792,0.0819,0.0858,0.0886,0.0917,0.0978,0.0996,0.1002,0.1084,0.112,0.1166,0.1168,0.1187,0.1196,0.1196,0.1208,0.1208,0.1209,0.1213,0.1214,0.1203,0.1203,0.1203,0.1203,0,0.0691,0.0726,0.0742,0.08,0.0828,0.0858,0.0904,0.0928,0.0953,0.0985,0.1027,0.1071,0.1119,0.1132,0.1156,0.1181,0.1184,0.1199,0.1211,0.1206,0.1211,0.1212,0.12,0.1201,0.1201,0.1202,0,0,0.0664,0.0744,0.0749,0.0776,0.0836,0.0864,0.0895,0.0942,0.0961,0.1002,0.1029,0.1083,0.1096,0.1125,0.1154,0.1171,0.1175,0.1184,0.1185,0.1181,0.1206,0.1194,0.1196,0.1191,0.1191,0.1192,0.1202,0,0.067,0.0729,0.0767,0.081,0.0843,0.0881,0.0908,0.0948,0.0978,0.1011,0.1045,0.1082,0.1098,0.1115,0.1134,0.1171,0.1181,0.1171,0.1217,0.1218,0.1204,0.1198,0.1186,0.1194,0.1204,0.1204,0.1204,0,0.0685,0.0725,0.0771,0.0827,0.0842,0.0866,0.0912,0.0942,0.0987,0.1009,0.1041,0.1069,0.1104,0.1113,0.1161,0.1153,0.1174,0.1195,0.1197,0.1203,0.1211,0.1204,0.1197,0.1198,0.1207,0.1207,0.1207,0,0.0661,0.0726,0.0762,0.0784,0.0849,0.0865,0.0893,0.0939,0.0964,0.1004,0.1021,0.1064,0.1088,0.112,0.116,0.1162,0.1205,0.1216,0.1223,0.1222,0.1231,0.123,0.1227,0.1244,0.1244,0.1244,0.1244,0,0.0664,0.0691,0.0752,0.0774,0.0806,0.0849,0.0879,0.091,0.095,0.0979,0.1014,0.104,0.1091,0.1123,0.1155,0.119,0.12,0.1219,0.1227,0.1216,0.1214,0.1231,0.1231,0.1244,0.1244,0.1244,0.1244,0,0.0643,0.0684,0.0726,0.0785,0.08,0.0821,0.0871,0.0894,0.0927,0.0963,0.0974,0.1025,0.1065,0.1108,0.1162,0.1183,0.1217,0.1228,0.1202,0.1207,0.1211,0.121,0.122,0.1223,0.1237,0.1237,0.1236,0,0.0642,0.0664,0.0724,0.0746,0.0773,0.0808,0.0834,0.0878,0.0903,0.0956,0.0973,0.1015,0.1052,0.1114,0.1156,0.1198,0.1211,0.1211,0.1217,0.1206,0.1211,0.1209,0.1212,0.1209,0.1209,0.1209,0.1208,0,0.0636,0.0656,0.0692,0.0735,0.0765,0.0802,0.0839,0.0855,0.0906,0.0933,0.0974,0.1003,0.1058,0.11,0.1147,0.1176,0.1201,0.1206,0.121,0.1199,0.1183,0.1192,0.1197,0.1206,0.1206,0.1206,0.1206,0.1206,0.0625,0.0646,0.0692,0.0732,0.0764,0.0799,0.0823,0.0858,0.0894,0.0942,0.0966,0.1007,0.1051,0.1117,0.1145,0.1178,0.1185,0.1191,0.1192,0.1193,0.119,0.1177,0.1187,0.1187,0.1187,0.1187,0.1187,0,0.0622,0.0653,0.0689,0.074,0.0771,0.0791,0.0834,0.0858,0.0894,0.0933,0.0968,0.1015,0.1056,0.1101,0.1144,0.1162,0.1174,0.1172,0.1171,0.1177,0.1181,0.1174,0.1161,0.1161,0.1161,0.1161,0.1161,0.1161,0.0623,0.066,0.0685,0.0738,0.0769,0.081,0.0832,0.0864,0.0896,0.0947,0.0981,0.101,0.1052,0.1098,0.1136,0.1148,0.1163,0.1157,0.1172,0.1175,0.1177,0.1179,0.1172,0.116,0.116,0.1166,0.1166,0.1166]},{"header":{"parameterUnit":"m.s-1","parameterCategory":1,"la1":30.2991,"la2":30.254,"lo1":-89.0895,"lo2":-89.0444,"dy":0.0017,"dx":0.0017,"nx":28,"ny":28,"refTime":"2024-04-18T03:00:00:Z","depth":0,"parameterNumber":3,"parameterNumberName":"V-component_of_WINDS"},"data":[0,0,0,0,0,0,0,0,0,0,0,0,0,0,0,0,0,0,0,0,0,0,0,0,0,0,0,0,0,0,0,0,0,0,0,0,0,0,0,0,0,0,0,0,0,0,0,0,0,0,0,0,0,0,0,0,0,0,3.8529,3.8528,0,3.8498,3.8497,3.8497,3.8483,3.8483,3.8484,3.8484,3.8448,3.8447,3.8446,0,0,0,0,0,0,0,0,0,0,0,0,0,3.8573,3.8573,3.8529,3.8528,3.8528,3.8498,3.8497,3.8497,3.8483,3.8483,3.8484,3.8484,3.8449,3.8448,3.8446,0,0,0,0,0,0,0,0,0,0,0,0,0,3.8549,3.8572,3.8529,3.8518,3.8516,3.8498,3.8497,3.8497,3.8483,3.8483,3.8484,3.8484,3.8449,3.8448,3.8446,3.8435,0,0,3.8442,3.8441,0,0,0,0,0,0,0,0,3.8551,3.8548,3.852,3.8518,3.8517,3.8495,3.85,3.8476,3.8483,3.8496,3.8484,3.8484,3.8463,3.8461,3.8455,3.8434,3.8432,3.8442,3.8441,3.844,3.844,0,0,0,0,0,0,0,3.8552,3.8549,3.8516,3.8519,3.8518,3.8513,3.851,3.8496,3.8479,3.8495,3.8494,3.849,3.8463,3.8456,3.8454,3.8432,3.8442,3.844,3.8439,3.8439,3.8401,3.8401,0,0,0,0,0,0,3.8556,3.855,3.8517,3.8515,3.8534,3.8512,3.8509,3.8502,3.848,3.8476,3.849,3.849,3.8459,3.8456,3.8452,3.8439,3.844,3.8439,3.8438,3.8401,3.8401,3.8401,0,0,0,0,0,0,3.8557,3.8554,3.8519,3.8533,3.8528,3.8512,3.8504,3.8501,3.8494,3.8476,3.8473,3.8487,3.8459,3.8455,3.844,3.8437,3.8438,3.8437,3.8401,3.8401,3.8401,3.8411,0,0,0,0,0,0,3.8559,3.8554,3.855,3.8533,3.8527,3.8508,3.8504,3.85,3.8492,3.8491,3.8472,3.8469,3.8458,3.8442,3.8439,3.8435,3.8435,3.8401,3.8401,3.8401,3.8411,3.8411,3.8411,0,0,0,0,0,3.856,3.8554,3.855,3.8546,3.8522,3.8507,3.8504,3.8493,3.8492,3.8488,3.8476,3.847,3.8438,3.8441,3.8437,3.8433,3.8401,3.8401,3.8401,3.8411,3.8411,3.8411,0,0,0,0,0,0,3.857,3.8551,3.8547,3.8535,3.8523,3.8505,3.85,3.8494,3.8481,3.8481,3.8466,3.8462,3.8449,3.8439,3.8443,3.8421,3.8419,3.8418,3.8428,3.8428,3.8429,3.8431,3.8434,0,0,0,0,0,3.8571,3.8561,3.8545,3.8535,3.853,3.8516,3.8509,3.8501,3.8488,3.8483,3.847,3.8457,3.8444,3.8436,3.8423,3.8409,3.8405,3.8405,3.8405,3.8405,3.8404,3.8397,3.8397,3.84,3.84,3.84,0,0,3.8572,3.856,3.8555,3.8537,3.8527,3.8517,3.8512,3.8501,3.8493,3.8481,3.8467,3.8457,3.8441,3.8427,3.8421,3.8419,3.8403,3.8405,3.8405,3.8404,3.8397,3.8396,3.8396,3.8399,3.84,3.84,0,0,3.8569,3.8559,3.8551,3.8541,3.8527,3.8518,3.8516,3.8499,3.8493,3.8479,3.847,3.846,3.8438,3.8427,3.8419,3.8413,3.8406,3.8409,3.841,3.8403,3.8403,3.8403,3.8401,3.84,3.8408,3.8408,3.8408,0,3.8572,3.8557,3.8547,3.8537,3.8529,3.8519,3.851,3.8501,3.8482,3.8477,3.8476,3.8449,3.8437,3.8421,3.842,3.8413,3.841,3.8411,3.8404,3.8404,3.8403,3.8401,3.84,3.8408,3.8408,3.8408,3.8408,0,3.8561,3.8551,3.8545,3.853,3.8521,3.8512,3.8499,3.8492,3.8486,3.8476,3.8462,3.8448,3.8433,3.8428,3.8421,3.8411,3.8411,3.8407,3.8404,3.8404,3.8401,3.84,3.8409,3.8409,3.8409,3.8409,0,0,3.8562,3.8542,3.854,3.8533,3.8517,3.8508,3.8498,3.8485,3.8478,3.8466,3.8457,3.8439,3.8436,3.8427,3.8418,3.8412,3.8409,3.8409,3.8408,3.8409,3.8397,3.84,3.8399,3.8404,3.8404,3.8404,3.8398,0,3.8557,3.854,3.8531,3.8517,3.8507,3.8499,3.849,3.8478,3.847,3.846,3.8449,3.8437,3.8434,3.8428,3.8422,3.841,3.8406,3.8411,3.8395,3.8394,3.8399,3.8398,3.8401,3.8396,3.8397,3.8397,3.8397,0,3.8549,3.8538,3.8524,3.851,3.8505,3.8498,3.8485,3.8475,3.8462,3.8456,3.8446,3.8439,3.8427,3.8426,3.8409,3.8413,3.8406,3.8399,3.8399,3.8397,3.8395,3.8396,3.8394,3.8393,3.8395,3.8395,3.8396,0,3.8551,3.8533,3.8523,3.8517,3.85,3.8495,3.8487,3.8475,3.8467,3.8455,3.845,3.8437,3.8429,3.8419,3.8407,3.8407,3.8392,3.8389,3.8386,3.8386,3.8383,3.8383,3.838,3.8379,3.8379,3.8379,3.8379,0,3.8546,3.8538,3.8524,3.8517,3.8507,3.8497,3.8487,3.8479,3.8468,3.8459,3.845,3.8441,3.8427,3.8416,3.8407,3.8395,3.8392,3.8386,3.8384,3.8387,3.8388,3.8382,3.8382,3.8378,3.8378,3.8378,3.8378,0,3.8547,3.8538,3.8525,3.8511,3.8507,3.8501,3.8488,3.8481,3.8472,3.8461,3.8458,3.8444,3.8431,3.8419,3.8401,3.8395,3.8383,3.838,3.8388,3.8387,3.8384,3.8384,3.8377,3.8376,3.8375,3.8375,3.8375,0,3.8545,3.8538,3.8524,3.8518,3.8511,3.8501,3.8494,3.8483,3.8476,3.8461,3.8456,3.8443,3.8432,3.8412,3.84,3.8386,3.8383,3.8381,3.8381,3.8384,3.8383,3.8383,3.8383,3.8381,3.8382,3.8382,3.8382,0,3.8541,3.8537,3.8528,3.8517,3.8509,3.8499,3.8489,3.8485,3.8472,3.8464,3.8452,3.8444,3.8427,3.8414,3.8399,3.8391,3.8384,3.8382,3.8381,3.8384,3.8389,3.8386,3.8389,3.8382,3.8382,3.8382,3.8382,3.8382,3.854,3.8534,3.8524,3.8513,3.8505,3.8496,3.8489,3.8481,3.8471,3.8457,3.8451,3.8439,3.8426,3.8406,3.8398,3.8387,3.8386,3.8383,3.8383,3.8382,3.8383,3.8391,3.8385,3.8385,3.8384,3.8384,3.8384,0,3.8536,3.8529,3.852,3.8507,3.85,3.8495,3.8484,3.8478,3.8468,3.8457,3.8447,3.8433,3.8421,3.8408,3.8395,3.8389,3.8386,3.8386,3.8386,3.8384,3.8385,3.8388,3.8389,3.8389,3.8389,3.8389,3.8389,3.8389,3.8533,3.8523,3.8518,3.8504,3.8497,3.8486,3.848,3.8472,3.8463,3.8449,3.8439,3.8431,3.842,3.8406,3.8394,3.8391,3.8386,3.8387,3.8383,3.8384,3.8384,3.8384,3.8386,3.8386,3.8386,3.8382,3.8382,3.8382]}]]